Back to Top
Banner_Quays_at_Mast_2020.jpeg
Banner_VERITY.jpeg
Banner_P42_Kinsale_2004.jpeg
Superyacht_SCOUT.jpg
Kinsale_Trawlers_Banner.jpeg
previous arrow
next arrow

Port Arrivals Report (AIS)

This report is generated from collected AIS (Automated Identification System) signals from vessels entering port.

IMO MMSI Class Flag Vessel Name Vessel type Nav Status Destination Call Sign Latitude Longitude Speed (kts) Course (T) Draught (m) LOA (m) Beam (m) Timestamp
0 250013861 B IE MATILDA Pleasure craft - EIA2328 51.688 -8.49918 6.3 341.9 0 11 3 2024-05-31 11:55:05
0 235055814 B GB MISTY SAILING. - MSSM5 51.6892 -8.49891 5.9 343.4 0 12 4 2024-05-31 10:38:05
0 250004156 A IE F/V BREIZH ARVOR II FISHING. - KINSALE EIRX3 51.6876 -8.49818 9.1 348.4 3.2 23 6 2024-05-31 07:59:21
0 250008379 B IE DIDO CORK SAILING. - EI6275 51.6873 -8.49772 5.6 356.6 0 0 0 2024-05-30 21:06:00
0 250001721 B IE FREE SPIRIT SAILING. - EI-GL-8 51.6875 -8.49888 4.4 346 0 10 4 2024-05-30 19:36:57
0 235008762 B GB JOCALIA SAILING. - VQJG5 51.6883 -8.49854 4.2 355.1 0 11 4 2024-05-30 14:59:28
0 50000954 A 500 JENNY M FISHING. Engaged in Fishing FISHING GROUNDS EIBN6 51.6876 -8.49858 6.8 345.7 2.8 19 4 2024-05-30 05:26:34
0 250001748 A IE LIR DREDGING / UNDERWATER Ops. - EIHI2 51.6897 -8.49806 20 352.7 1 11 2 2024-05-29 22:18:11
0 250106680 B IE CIRRUS SAILING. - EI7621 51.6871 -8.49534 5.6 289.3 0 10 4 2024-05-29 20:23:31
0 250001206 B IE CAPELLA OF KINSALE SAILING. - EIDI6 51.6879 -8.49456 4.4 294.5 0 12 4 2024-05-29 20:20:16
0 250004059 B IE JUSTUS SAILING. - EI-RR-6 51.6884 -8.4994 7.7 298.6 0 11 3 2024-05-29 20:15:57
0 250014322 B IE JALAPENO Pleasure craft - JALAPEN 51.6878 -8.4953 7.1 2.4 0 16 5 2024-05-29 20:14:18
0 227470510 B FR BLEU TONNERRE SAILING. - FG9669 51.6871 -8.49837 3 4.8 0 14 4 2024-05-29 17:32:16
0 211580740 B DE RED HERRING Pleasure craft - DK6874 51.6871 -8.49903 1.7 40.4 0 12 3 2024-05-29 17:21:15
0 211580740 B DE RED HERRING Pleasure craft - DK6874 51.6875 -8.4996 4.6 350.5 0 12 3 2024-05-29 12:11:16
0 250001206 B IE CAPELLA OF KINSALE SAILING. - EIDI6 51.688 -8.49888 5.9 350 0 12 4 2024-05-28 20:04:45
0 232016609 B GB RNLI LIFEBOAT B-909 SAR. - 51.6875 -8.49848 26.6 6.7 0 8 2 2024-05-28 19:30:09
0 250001748 A IE LIR DREDGING / UNDERWATER Ops. - EIHI2 51.6875 -8.49956 7.7 4.4 1 11 2 2024-05-28 09:22:35
0 250001748 A IE LIR DREDGING / UNDERWATER Ops. - EIHI2 51.6893 -8.49953 3.4 348.7 1 11 2 2024-05-28 08:41:35
0 250006459 B IE GOLDENEYE SAILING. - EI-ZA-4 51.6878 -8.49982 6.3 344.5 0 10 4 2024-05-27 17:15:50